"Pseudo-MPEC" for C90M3M2

Created 2023 Mar 26 0:22:06 UT using Find_Orb

Click here for an explanation of pseudo-MPECs

 
 Astrometry: 
     C90M3M2*1C2023 03 14.35878812 27 42.358-01 41 38.29   ~3E9M 20.24GVNEOCPG96
     C90M3M2 1C2023 03 14.37001812 27 59.296-01 39 53.35   ~3E9M 20.62GVNEOCPG96
     C90M3M2 1C2023 03 14.37562212 28 07.957-01 38 59.46   ~3E9Mx20.67GVNEOCPG96
     C90M3M2 1C2023 03 14.48209712 30 49.554-01 22 19.16   ~3EBq 20.77GVNEOCPG96
     C90M3M2 1C2023 03 14.48247712 30 50.159-01 22 15.53   ~3EBq 20.58GVNEOCPG96
     C90M3M2 1C2023 03 14.48285612 30 50.699-01 22 12.00   ~3EBq 20.38GVNEOCPG96
     C90M3M2 1C2023 03 14.48323512 30 51.275-01 22 08.40   ~3EBq 20.23GVNEOCPG96

Station data:
(G96) Mt. Lemmon Survey  (N32.442751 W110.788720)  US/Arizona.  Observers T.
   A. Pruyne, B. M. Africano, E. J. Christensen, G. A. Farneth, D. C. Fuls,
   A. R. Gibbs, A. D. Grauer, H. Gröller, J. A. Johnson, R. A. Kowalski, S.
   M. Larson, G. J. Leonard, D. Rankin, R. L. Seaman, F. C. Shelly, K. W.
   Wierzchoś. 1.5-m reflector + 10K CCD.

Orbital elements:  C90M3M2
   Perihelion 2023 Mar 18.16114 TT =  3:52:02 (JD 2460021.66114)
Epoch 2023 Mar 14.0 TT = JDT 2460017.5   Earth MOID: 0.0363      AutoNEOCP
M 358.65503138                      (J2000 ecliptic)
n   0.32322131     Peri.    4.68452
a   2.10282302     Node   173.40698
e   0.5100838      Incl.    9.24162
P   3.05           H   26.98    G   0.15   q 1.03020696  Q 3.17543908
6 of 7 observations 2023 Mar. 14 (3.0 hr); mean residual 0".19
Residuals in arcseconds: 
230314 G96  .07+  .21+    230314 G96  .09+  .02-    230314 G96  .29-  .02+    
230314 G96  .08-  .23-    230314 G96  .42+  .03+    
230314 G96( 2.9+  1.0+)   230314 G96  .21-  .01-    

Ephemerides (geocentric):
Date (UTC) HH   RA             Dec           delta  r     elong  mag
---- --------  ------------   ------------  ------ ------ -----  ---
2023 03 26 00  15 58 27.546   +16 42 27.88  .06658 1.0345 122.4 23.2
2023 03 26 01  15 58 49.723   +16 43 50.15  .06674 1.0346 122.4 23.2
2023 03 26 02  15 59 11.788   +16 45 11.84  .06690 1.0346 122.3 23.2
2023 03 26 03  15 59 33.744   +16 46 32.95  .06706 1.0347 122.2 23.2
2023 03 26 04  15 59 55.590   +16 47 53.49  .06722 1.0347 122.2 23.2
2023 03 26 05  16 00 17.328   +16 49 13.47  .06738 1.0348 122.1 23.2
2023 03 26 06  16 00 38.958   +16 50 32.89  .06754 1.0348 122.1 23.3
2023 03 26 07  16 01 00.480   +16 51 51.75  .06771 1.0349 122.0 23.3
2023 03 26 08  16 01 21.895   +16 53 10.06  .06787 1.0349 121.9 23.3
2023 03 26 09  16 01 43.203   +16 54 27.82  .06803 1.0350 121.9 23.3
2023 03 26 10  16 02 04.407   +16 55 45.03  .06819 1.0350 121.8 23.3
2023 03 26 11  16 02 25.505   +16 57 01.71  .06835 1.0350 121.8 23.3
2023 03 26 12  16 02 46.498   +16 58 17.85  .06852 1.0351 121.7 23.3
2023 03 26 13  16 03 07.388   +16 59 33.46  .06868 1.0351 121.7 23.3
2023 03 26 14  16 03 28.175   +17 00 48.55  .06884 1.0352 121.6 23.3
2023 03 26 15  16 03 48.858   +17 02 03.11  .06900 1.0352 121.5 23.3
2023 03 26 16  16 04 09.440   +17 03 17.15  .06917 1.0353 121.5 23.3
2023 03 26 17  16 04 29.920   +17 04 30.68  .06933 1.0353 121.4 23.3
2023 03 26 18  16 04 50.299   +17 05 43.70  .06949 1.0354 121.4 23.3
2023 03 26 19  16 05 10.578   +17 06 56.21  .06965 1.0354 121.3 23.3
2023 03 26 20  16 05 30.757   +17 08 08.23  .06982 1.0355 121.3 23.3
2023 03 26 21  16 05 50.837   +17 09 19.74  .06998 1.0355 121.2 23.3
2023 03 26 22  16 06 10.818   +17 10 30.76  .07014 1.0356 121.2 23.4
2023 03 26 23  16 06 30.701   +17 11 41.29  .07031 1.0356 121.1 23.4
2023 03 27 00  16 06 50.487   +17 12 51.33  .07047 1.0357 121.1 23.4
2023 03 27 01  16 07 10.176   +17 14 00.89  .07064 1.0358 121.0 23.4
2023 03 27 02  16 07 29.768   +17 15 09.97  .07080 1.0358 121.0 23.4
2023 03 27 03  16 07 49.264   +17 16 18.57  .07096 1.0359 120.9 23.4
2023 03 27 04  16 08 08.665   +17 17 26.71  .07113 1.0359 120.9 23.4
2023 03 27 05  16 08 27.971   +17 18 34.37  .07129 1.0360 120.8 23.4
2023 03 27 06  16 08 47.183   +17 19 41.57  .07146 1.0360 120.8 23.4
2023 03 27 07  16 09 06.302   +17 20 48.31  .07162 1.0361 120.7 23.4
2023 03 27 08  16 09 25.327   +17 21 54.60  .07179 1.0361 120.7 23.4
2023 03 27 09  16 09 44.259   +17 23 00.43  .07195 1.0362 120.6 23.4
2023 03 27 10  16 10 03.099   +17 24 05.81  .07212 1.0362 120.6 23.4
2023 03 27 11  16 10 21.848   +17 25 10.75  .07228 1.0363 120.5 23.4
2023 03 27 12  16 10 40.506   +17 26 15.24  .07245 1.0363 120.5 23.4
2023 03 27 13  16 10 59.073   +17 27 19.29  .07262 1.0364 120.4 23.5
2023 03 27 14  16 11 17.550   +17 28 22.91  .07278 1.0364 120.4 23.5
2023 03 27 15  16 11 35.938   +17 29 26.09  .07295 1.0365 120.3 23.5
2023 03 27 16  16 11 54.236   +17 30 28.85  .07311 1.0366 120.3 23.5
2023 03 27 17  16 12 12.446   +17 31 31.17  .07328 1.0366 120.2 23.5
2023 03 27 18  16 12 30.568   +17 32 33.08  .07344 1.0367 120.2 23.5
2023 03 27 19  16 12 48.603   +17 33 34.57  .07361 1.0367 120.1 23.5
2023 03 27 20  16 13 06.551   +17 34 35.64  .07378 1.0368 120.1 23.5
2023 03 27 21  16 13 24.412   +17 35 36.30  .07394 1.0368 120.1 23.5
2023 03 27 22  16 13 42.187   +17 36 36.54  .07411 1.0369 120.0 23.5
2023 03 27 23  16 13 59.876   +17 37 36.39  .07428 1.0370 120.0 23.5